This is the latest recevied weather packets stored in our database for station/object KN4MGS. If no packets are shown the sender has not sent any weather packets the latest 10 day(s).
| Time | Temp. | Humidity | Pressure | Rain* | Wind** | Luminosity | Snow |
|---|---|---|---|---|---|---|---|
| 1777909977 | 22.78° C | 43% | 1021.3 hPa | 0 mm | - | 756 W/m² | - |
| 1777909674 | 22.78° C | 44% | 1021.6 hPa | 0 mm | - | 673 W/m² | - |
| 1777909371 | 22.78° C | 43% | 1021.4 hPa | 0 mm | - | 669 W/m² | - |
| 1777909069 | 22.22° C | 41% | 1021.3 hPa | 0 mm | - | 670 W/m² | - |
| 1777908767 | 22.22° C | 42% | 1021.5 hPa | 0 mm | - | 722 W/m² | - |
| 1777908463 | 22.78° C | 40% | 1021.5 hPa | 0 mm | - | 744 W/m² | - |
| 1777908160 | 22.78° C | 37% | 1021.6 hPa | 0 mm | - | 729 W/m² | - |
| 1777907856 | 22.22° C | 41% | 1021.3 hPa | 0 mm | - | 737 W/m² | - |
| 1777907552 | 21.67° C | 47% | 1021.2 hPa | 0 mm | - | 757 W/m² | - |
| 1777907248 | 22.78° C | 43% | 1021.6 hPa | 0 mm | - | 743 W/m² | - |
| 1777906945 | 22.22° C | 46% | 1021.4 hPa | 0 mm | - | 754 W/m² | - |
| 1777906643 | 21.67° C | 47% | 1021.7 hPa | 0 mm | - | 719 W/m² | - |
| 1777906339 | 20.56° C | 48% | 1021.4 hPa | 0 mm | - | 751 W/m² | - |
| 1777906035 | 21.11° C | 49% | 1021.4 hPa | 0 mm | - | 737 W/m² | - |
| 1777905732 | 20.56° C | 51% | 1021.6 hPa | 0 mm | - | 693 W/m² | - |
| 1777905429 | 21.11° C | 51% | 1021.6 hPa | 0 mm | - | 717 W/m² | - |
| 1777905127 | 20.56° C | 48% | 1021.5 hPa | 0 mm | - | 708 W/m² | - |
| 1777904823 | 20° C | 56% | 1021.4 hPa | 0 mm | - | 708 W/m² | - |
| 1777904521 | 20.56° C | 57% | 1021.5 hPa | 0 mm | - | 644 W/m² | - |
| 1777904217 | 19.44° C | 60% | 1021.2 hPa | 0 mm | - | 685 W/m² | - |
| 1777903914 | 18.33° C | 60% | 1021.6 hPa | 0 mm | - | 657 W/m² | - |
| 1777903611 | 18.89° C | 58% | 1021.6 hPa | 0 mm | - | 659 W/m² | - |
| 1777903307 | 18.89° C | 61% | 1021.6 hPa | 0 mm | - | 603 W/m² | - |
| 1777903004 | 18.89° C | 62% | 1021.6 hPa | 0 mm | - | 484 W/m² | - |
| 1777902700 | 18.89° C | 65% | 1021.7 hPa | 0 mm | - | 561 W/m² | - |
* Rain latest hour (hover to see other rain measurements)
** Current wind speed in m/s (hover to see current wind gust speed)